Time,TemperatureF,DewpointF,PressureIn,WindDirection,WindDirectionDegrees,WindSpeedMPH,WindSpeedGustMPH,Humidity,HourlyPrecipIn,Conditions,Clouds,dailyrainin,SoftwareType,DateUTC
2013-04-03 00:00:00,67.0,64.0,30.00,East,90,9.0,9.0,89,-99.99,,,-99.99,,2013-04-03 05:00:00,
2013-04-03 00:22:00,67.0,64.0,30.00,East,90,9.0,9.0,89,-99.99,,,-99.99,,2013-04-03 05:22:00,
2013-04-03 00:31:00,67.0,64.0,30.00,East,90,9.0,9.0,89,-99.99,,,-99.99,,2013-04-03 05:31:00,
2013-04-03 00:41:00,67.0,64.0,30.00,East,90,9.0,9.0,89,-99.99,,,-99.99,,2013-04-03 05:41:00,
2013-04-03 00:51:00,67.0,64.0,30.00,East,90,9.0,9.0,89,-99.99,,,-99.99,,2013-04-03 05:51:00,
2013-04-03 01:00:00,67.0,64.0,29.98,ENE,70,10.0,11.0,91,-99.99,,,-99.99,,2013-04-03 06:00:00,
2013-04-03 01:21:00,67.0,64.0,29.98,ENE,70,10.0,11.0,91,-99.99,,,-99.99,,2013-04-03 06:21:00,
2013-04-03 01:31:00,67.0,64.0,29.98,ENE,70,10.0,11.0,91,-99.99,,,-99.99,,2013-04-03 06:31:00,
2013-04-03 01:41:00,67.0,64.0,29.98,ENE,70,10.0,11.0,91,-99.99,,,-99.99,,2013-04-03 06:41:00,
2013-04-03 01:51:00,67.0,64.0,29.98,ENE,70,10.0,11.0,91,-99.99,,,-99.99,,2013-04-03 06:51:00,
2013-04-03 02:00:00,67.0,64.0,29.98,East,100,9.0,9.0,91,-99.99,,,-99.99,,2013-04-03 07:00:00,
2013-04-03 02:22:00,67.0,64.0,29.98,East,100,9.0,9.0,91,-99.99,,,-99.99,,2013-04-03 07:22:00,
2013-04-03 02:31:00,67.0,64.0,29.98,East,100,9.0,9.0,91,-99.99,,,-99.99,,2013-04-03 07:31:00,
2013-04-03 02:41:00,67.0,64.0,29.98,East,100,9.0,9.0,91,-99.99,,,-99.99,,2013-04-03 07:41:00,
2013-04-03 02:52:00,67.0,64.0,29.98,East,100,9.0,9.0,91,-99.99,,,-99.99,,2013-04-03 07:52:00,
2013-04-03 03:00:00,67.0,64.0,29.95,East,100,14.0,16.0,88,-99.99,,,-99.99,,2013-04-03 08:00:00,
2013-04-03 03:31:00,67.0,64.0,29.95,East,100,14.0,16.0,88,-99.99,,,-99.99,,2013-04-03 08:31:00,
2013-04-03 03:41:00,67.0,64.0,29.95,East,100,14.0,16.0,88,-99.99,,,-99.99,,2013-04-03 08:41:00,
2013-04-03 03:51:00,67.0,64.0,29.95,East,100,14.0,16.0,88,-99.99,,,-99.99,,2013-04-03 08:51:00,
2013-04-03 04:00:00,66.0,64.0,29.93,East,80,11.0,13.0,92,-99.99,,,-99.99,,2013-04-03 09:00:00,
2013-04-03 04:21:00,66.0,64.0,29.93,East,80,11.0,13.0,92,-99.99,,,-99.99,,2013-04-03 09:21:00,
2013-04-03 04:32:00,66.0,64.0,29.93,East,80,11.0,13.0,92,-99.99,,,-99.99,,2013-04-03 09:32:00,
2013-04-03 04:42:00,66.0,64.0,29.93,East,80,11.0,13.0,92,-99.99,,,-99.99,,2013-04-03 09:42:00,
2013-04-03 04:52:00,66.0,64.0,29.93,East,80,11.0,13.0,92,-99.99,,,-99.99,,2013-04-03 09:52:00,
2013-04-03 05:00:00,65.0,64.0,29.94,NE,50,10.0,11.0,95,-99.99,,,-99.99,,2013-04-03 10:00:00,
2013-04-03 05:22:00,65.0,64.0,29.94,NE,50,10.0,11.0,95,-99.99,,,-99.99,,2013-04-03 10:22:00,
2013-04-03 05:32:00,65.0,64.0,29.94,NE,50,10.0,11.0,95,-99.99,,,-99.99,,2013-04-03 10:32:00,
2013-04-03 05:42:00,65.0,64.0,29.94,NE,50,10.0,11.0,95,-99.99,,,-99.99,,2013-04-03 10:42:00,
2013-04-03 05:52:00,65.0,64.0,29.94,NE,50,10.0,11.0,95,-99.99,,,-99.99,,2013-04-03 10:52:00,
2013-04-03 06:00:00,64.0,63.0,29.96,NE,50,16.0,18.0,95,-99.99,,,-99.99,,2013-04-03 11:00:00,
2013-04-03 06:22:00,64.0,63.0,29.96,NE,50,16.0,18.0,95,-99.99,,,-99.99,,2013-04-03 11:22:00,
2013-04-03 06:32:00,64.0,63.0,29.96,NE,50,16.0,18.0,95,-99.99,,,-99.99,,2013-04-03 11:32:00,
2013-04-03 06:41:00,64.0,63.0,29.96,NE,50,16.0,18.0,95,-99.99,,,-99.99,,2013-04-03 11:41:00,
2013-04-03 06:52:00,64.0,63.0,29.96,NE,50,16.0,18.0,95,-99.99,,,-99.99,,2013-04-03 11:52:00,
2013-04-03 07:00:00,63.0,62.0,29.99,NNE,20,20.0,21.0,96,-99.99,,,-99.99,,2013-04-03 12:00:00,
2013-04-03 07:22:00,63.0,62.0,29.99,NNE,20,20.0,21.0,96,-99.99,,,-99.99,,2013-04-03 12:22:00,
2013-04-03 07:31:00,63.0,62.0,29.99,NNE,20,20.0,21.0,96,-99.99,,,-99.99,,2013-04-03 12:31:00,
2013-04-03 07:41:00,63.0,62.0,29.99,NNE,20,20.0,21.0,96,-99.99,,,-99.99,,2013-04-03 12:41:00,
2013-04-03 07:52:00,63.0,62.0,29.99,NNE,20,20.0,21.0,96,-99.99,,,-99.99,,2013-04-03 12:52:00,
2013-04-03 08:00:00,62.0,59.0,29.99,NE,40,22.0,25.0,91,-99.99,,,-99.99,,2013-04-03 13:00:00,
2013-04-03 08:21:00,62.0,59.0,29.99,NE,40,22.0,25.0,91,-99.99,,,-99.99,,2013-04-03 13:21:00,
2013-04-03 08:31:00,62.0,59.0,29.99,NE,40,22.0,25.0,91,-99.99,,,-99.99,,2013-04-03 13:31:00,
2013-04-03 08:41:00,62.0,59.0,29.99,NE,40,22.0,25.0,91,-99.99,,,-99.99,,2013-04-03 13:41:00,
2013-04-03 08:52:00,62.0,59.0,29.99,NE,40,22.0,25.0,91,-99.99,,,-99.99,,2013-04-03 13:52:00,
2013-04-03 09:00:00,61.0,59.0,29.98,ENE,60,25.0,28.0,95,-99.99,,,-99.99,,2013-04-03 14:00:00,
2013-04-03 09:21:00,61.0,59.0,29.98,ENE,60,25.0,28.0,95,-99.99,,,-99.99,,2013-04-03 14:21:00,
2013-04-03 09:31:00,61.0,59.0,29.98,ENE,60,25.0,28.0,95,-99.99,,,-99.99,,2013-04-03 14:31:00,
2013-04-03 09:41:00,61.0,59.0,29.98,ENE,60,25.0,28.0,95,-99.99,,,-99.99,,2013-04-03 14:41:00,
2013-04-03 09:51:00,61.0,59.0,29.98,ENE,60,25.0,28.0,95,-99.99,,,-99.99,,2013-04-03 14:51:00,
2013-04-03 10:00:00,60.0,59.0,30.01,ENE,60,21.0,24.0,94,-99.99,,,-99.99,,2013-04-03 15:00:00,
2013-04-03 10:32:00,60.0,59.0,30.01,ENE,60,21.0,24.0,94,-99.99,,,-99.99,,2013-04-03 15:32:00,
2013-04-03 10:42:00,60.0,59.0,30.01,ENE,60,21.0,24.0,94,-99.99,,,-99.99,,2013-04-03 15:42:00,
2013-04-03 10:53:00,60.0,59.0,30.01,ENE,60,21.0,24.0,94,-99.99,,,-99.99,,2013-04-03 15:53:00,
2013-04-03 11:00:00,59.0,58.0,30.03,NE,40,24.0,28.0,97,-99.99,,,-99.99,,2013-04-03 16:00:00,
2013-04-03 11:22:00,59.0,58.0,30.03,NE,40,24.0,28.0,97,-99.99,,,-99.99,,2013-04-03 16:22:00,
2013-04-03 11:32:00,59.0,58.0,30.03,NE,40,24.0,28.0,97,-99.99,,,-99.99,,2013-04-03 16:32:00,
2013-04-03 11:42:00,59.0,58.0,30.03,NE,40,24.0,28.0,97,-99.99,,,-99.99,,2013-04-03 16:42:00,
2013-04-03 11:52:00,59.0,58.0,30.03,NE,40,24.0,28.0,97,-99.99,,,-99.99,,2013-04-03 16:52:00,
2013-04-03 12:00:00,58.0,58.0,30.05,NE,40,21.0,23.0,98,-99.99,,,-99.99,,2013-04-03 17:00:00,
2013-04-03 12:22:00,58.0,58.0,30.05,NE,40,21.0,23.0,98,-99.99,,,-99.99,,2013-04-03 17:22:00,
2013-04-03 12:32:00,58.0,58.0,30.05,NE,40,21.0,23.0,98,-99.99,,,-99.99,,2013-04-03 17:32:00,
2013-04-03 12:44:00,58.0,58.0,30.05,NE,40,21.0,23.0,98,-99.99,,,-99.99,,2013-04-03 17:44:00,
2013-04-03 12:52:00,58.0,58.0,30.05,NE,40,21.0,23.0,98,-99.99,,,-99.99,,2013-04-03 17:52:00,
2013-04-03 13:00:00,58.0,57.0,30.06,NNE,30,17.0,21.0,98,-99.99,,,-99.99,,2013-04-03 18:00:00,
2013-04-03 13:21:00,58.0,57.0,30.06,NNE,30,17.0,21.0,98,-99.99,,,-99.99,,2013-04-03 18:21:00,
2013-04-03 13:32:00,58.0,57.0,30.06,NNE,30,17.0,21.0,98,-99.99,,,-99.99,,2013-04-03 18:32:00,
2013-04-03 13:41:00,58.0,57.0,30.06,NNE,30,17.0,21.0,98,-99.99,,,-99.99,,2013-04-03 18:41:00,
2013-04-03 13:52:00,58.0,57.0,30.06,NNE,30,17.0,21.0,98,-99.99,,,-99.99,,2013-04-03 18:52:00,
2013-04-03 14:00:00,59.0,58.0,29.80,East,90,36.0,43.0,98,-99.99,,,-99.99,,2013-04-03 19:00:00,
2013-04-03 14:21:00,59.0,58.0,29.80,East,90,36.0,43.0,98,-99.99,,,-99.99,,2013-04-03 19:21:00,
2013-04-03 14:31:00,59.0,58.0,29.80,East,90,36.0,43.0,98,-99.99,,,-99.99,,2013-04-03 19:31:00,
2013-04-03 14:41:00,59.0,58.0,29.80,East,90,36.0,43.0,98,-99.99,,,-99.99,,2013-04-03 19:41:00,
2013-04-03 14:52:00,59.0,58.0,29.80,East,90,36.0,43.0,98,-99.99,,,-99.99,,2013-04-03 19:52:00,
2013-04-03 15:00:00,62.0,60.0,29.80,East,90,32.0,37.0,95,-99.99,,,-99.99,,2013-04-03 20:00:00,
2013-04-03 15:21:00,62.0,60.0,29.80,East,90,32.0,37.0,95,-99.99,,,-99.99,,2013-04-03 20:21:00,
2013-04-03 15:31:00,62.0,60.0,29.80,East,90,32.0,37.0,95,-99.99,,,-99.99,,2013-04-03 20:31:00,
2013-04-03 15:42:00,62.0,60.0,29.80,East,90,32.0,37.0,95,-99.99,,,-99.99,,2013-04-03 20:42:00,
2013-04-03 15:52:00,62.0,60.0,29.80,East,90,32.0,37.0,95,-99.99,,,-99.99,,2013-04-03 20:52:00,
2013-04-03 16:00:00,63.0,61.0,29.83,NE,50,22.0,23.0,93,-99.99,,,-99.99,,2013-04-03 21:00:00,
2013-04-03 16:21:00,63.0,61.0,29.83,NE,50,22.0,23.0,93,-99.99,,,-99.99,,2013-04-03 21:21:00,
2013-04-03 16:32:00,63.0,61.0,29.83,NE,50,22.0,23.0,93,-99.99,,,-99.99,,2013-04-03 21:32:00,
2013-04-03 16:42:00,63.0,61.0,29.83,NE,50,22.0,23.0,93,-99.99,,,-99.99,,2013-04-03 21:42:00,
2013-04-03 16:52:00,63.0,61.0,29.83,NE,50,22.0,23.0,93,-99.99,,,-99.99,,2013-04-03 21:52:00,
2013-04-03 17:00:00,64.0,61.0,29.83,ENE,60,18.0,22.0,89,-99.99,,,-99.99,,2013-04-03 22:00:00,
2013-04-03 17:22:00,64.0,61.0,29.83,ENE,60,18.0,22.0,89,-99.99,,,-99.99,,2013-04-03 22:22:00,
2013-04-03 17:32:00,64.0,61.0,29.83,ENE,60,18.0,22.0,89,-99.99,,,-99.99,,2013-04-03 22:32:00,
2013-04-03 17:42:00,64.0,61.0,29.83,ENE,60,18.0,22.0,89,-99.99,,,-99.99,,2013-04-03 22:42:00,
2013-04-03 17:52:00,64.0,61.0,29.83,ENE,60,18.0,22.0,89,-99.99,,,-99.99,,2013-04-03 22:52:00,
2013-04-03 18:00:00,63.0,60.0,29.86,NNE,20,15.0,18.0,90,-99.99,,,-99.99,,2013-04-03 23:00:00,
2013-04-03 18:21:00,63.0,60.0,29.86,NNE,20,15.0,18.0,90,-99.99,,,-99.99,,2013-04-03 23:21:00,
2013-04-03 18:32:00,63.0,60.0,29.86,NNE,20,15.0,18.0,90,-99.99,,,-99.99,,2013-04-03 23:32:00,
2013-04-03 18:42:00,63.0,60.0,29.86,NNE,20,15.0,18.0,90,-99.99,,,-99.99,,2013-04-03 23:42:00,
2013-04-03 18:52:00,63.0,60.0,29.86,NNE,20,15.0,18.0,90,-99.99,,,-99.99,,2013-04-03 23:52:00,
2013-04-03 19:00:00,63.0,60.0,29.88,North,10,22.0,24.0,88,-99.99,,,-99.99,,2013-04-04 00:00:00,
2013-04-03 19:21:00,63.0,60.0,29.88,North,10,22.0,24.0,88,-99.99,,,-99.99,,2013-04-04 00:21:00,
2013-04-03 19:32:00,63.0,60.0,29.88,North,10,22.0,24.0,88,-99.99,,,-99.99,,2013-04-04 00:32:00,
2013-04-03 19:42:00,63.0,60.0,29.88,North,10,22.0,24.0,88,-99.99,,,-99.99,,2013-04-04 00:42:00,
2013-04-03 19:51:00,63.0,60.0,29.88,North,10,22.0,24.0,88,-99.99,,,-99.99,,2013-04-04 00:51:00,
2013-04-03 20:00:00,61.0,59.0,29.92,North,10,22.0,24.0,91,-99.99,,,-99.99,,2013-04-04 01:00:00,
2013-04-03 20:21:00,61.0,59.0,29.92,North,10,22.0,24.0,91,-99.99,,,-99.99,,2013-04-04 01:21:00,
2013-04-03 20:32:00,61.0,59.0,29.92,North,10,22.0,24.0,91,-99.99,,,-99.99,,2013-04-04 01:32:00,
2013-04-03 20:42:00,61.0,59.0,29.92,North,10,22.0,24.0,91,-99.99,,,-99.99,,2013-04-04 01:42:00,
2013-04-03 20:52:00,61.0,59.0,29.92,North,10,22.0,24.0,91,-99.99,,,-99.99,,2013-04-04 01:52:00,
2013-04-03 21:00:00,60.0,58.0,29.93,North,10,24.0,28.0,92,-99.99,,,-99.99,,2013-04-04 02:00:00,
2013-04-03 21:22:00,60.0,58.0,29.93,North,10,24.0,28.0,92,-99.99,,,-99.99,,2013-04-04 02:22:00,
2013-04-03 21:31:00,60.0,58.0,29.93,North,10,24.0,28.0,92,-99.99,,,-99.99,,2013-04-04 02:31:00,
2013-04-03 21:52:00,60.0,58.0,29.93,North,10,24.0,28.0,92,-99.99,,,-99.99,,2013-04-04 02:52:00,
2013-04-03 22:00:00,59.0,56.0,29.95,North,10,22.0,24.0,91,-99.99,,,-99.99,,2013-04-04 03:00:00,
2013-04-03 22:21:00,59.0,56.0,29.95,North,10,22.0,24.0,91,-99.99,,,-99.99,,2013-04-04 03:21:00,
2013-04-03 22:32:00,59.0,56.0,29.95,North,10,22.0,24.0,91,-99.99,,,-99.99,,2013-04-04 03:32:00,
2013-04-03 22:43:00,59.0,56.0,29.95,North,10,22.0,24.0,91,-99.99,,,-99.99,,2013-04-04 03:43:00,
2013-04-03 22:53:00,59.0,56.0,29.95,North,10,22.0,24.0,91,-99.99,,,-99.99,,2013-04-04 03:53:00,
2013-04-03 23:00:00,59.0,57.0,29.95,NNE,20,15.0,16.0,92,-99.99,,,-99.99,,2013-04-04 04:00:00,
2013-04-03 23:22:00,59.0,57.0,29.95,NNE,20,15.0,16.0,92,-99.99,,,-99.99,,2013-04-04 04:22:00,
2013-04-03 23:32:00,59.0,57.0,29.95,NNE,20,15.0,16.0,92,-99.99,,,-99.99,,2013-04-04 04:32:00,
2013-04-03 23:42:00,59.0,57.0,29.95,NNE,20,15.0,16.0,92,-99.99,,,-99.99,,2013-04-04 04:42:00,
2013-04-03 23:52:00,59.0,57.0,29.95,NNE,20,15.0,16.0,92,-99.99,,,-99.99,,2013-04-04 04:52:00,